Location: Eaglesham
(55.7833°N, 117.9000°W)
Time: 15:05:05
(UTC+00:00)

N. Korean satellite - Visible Passes

Search period start: 02 December 2021 00:00
Search period end: 12 December 2021 00:00
Orbit: 447 x 495 km, 97.3° (Epoch: 01 December)

Date Brightness Start Highest point End Pass type
(mag) Time Alt. Az. Time Alt. Az. Time Alt. Az.
02 Dec 8.6 00:46:15 10° SSW 00:49:25 30° W 00:52:35 10° NNW visible
02 Dec 9.8 12:04:33 10° ENE 12:06:07 13° E 12:07:41 10° ESE visible
02 Dec 6.2 13:36:23 10° N 13:39:48 71° WNW 13:43:09 10° SSW visible
02 Dec 8.5 15:11:44 10° NW 15:12:21 10° NW 15:12:56 10° WNW visible
03 Dec 7.2 00:17:19 10° S 00:20:49 60° W 00:24:17 10° NNW visible
03 Dec 7.1 13:07:53 10° NNE 13:11:15 55° E 13:14:35 10° S visible
03 Dec 7.9 14:41:48 10° NNW 14:44:08 17° WNW 14:46:27 10° WSW visible
04 Dec 9.8 01:23:56 10° WSW 01:25:53 14° W 01:27:51 10° NW visible
04 Dec 8.5 12:39:37 10° NE 12:42:36 27° E 12:45:33 10° SSE visible
04 Dec 7.2 14:12:48 10° N 14:15:49 30° WNW 14:18:49 10° SW visible
05 Dec 9.0 00:54:08 10° SSW 00:57:07 26° W 01:00:06 10° NW visible
05 Dec 9.5 12:11:48 10° NE 12:13:50 15° E 12:15:51 10° SE visible
05 Dec 6.3 13:44:02 10° N 13:47:24 58° WNW 13:50:44 10° SSW visible
06 Dec 7.6 00:25:02 10° S 00:28:27 49° W 00:31:51 10° NNW visible
06 Dec 6.7 13:15:28 10° NNE 13:18:52 67° ESE 13:22:14 10° S visible
06 Dec 8.1 14:49:37 10° NNW 14:51:40 15° WNW 14:53:41 10° W visible
07 Dec 9.9 01:32:11 10° WSW 01:33:34 12° W 01:34:55 10° WNW visible
07 Dec 8.1 12:47:06 10° NNE 12:50:13 33° E 12:53:18 10° SSE visible
07 Dec 7.4 14:20:28 10° N 14:23:20 26° WNW 14:26:11 10° WSW visible
08 Dec 9.3 01:01:58 10° SW 01:04:44 22° W 01:07:29 10° NW visible
08 Dec 9.3 12:19:05 10° NE 12:21:27 17° E 12:23:48 10° SE visible
08 Dec 6.5 13:51:37 10° N 13:54:54 48° WNW 13:58:11 10° SW visible
09 Dec 8.0 00:32:41 10° S 00:36:00 41° W 00:39:18 10° NNW visible
09 Dec 6.4 13:22:57 10° NNE 13:26:22 82° ESE 13:29:46 10° SSW visible
09 Dec 8.2 14:57:25 10° NNW 14:59:04 13° NW 15:00:44 10° W visible
10 Dec 6.6 00:03:53 10° SSE 00:07:22 84° WSW 00:10:49 10° NNW visible
10 Dec 7.8 12:54:30 10° NNE 13:00:14 15° SSE 13:00:56 10° S visible
10 Dec 7.6 14:28:03 10° N 14:30:45 22° WNW 14:31:24 21° W visible
11 Dec 9.5 01:09:46 10° SW 01:12:15 18° W 01:14:44 10° NW visible
11 Dec 9.2 12:26:19 10° NE 12:32:03 - SSE 12:27:51 18° ENE visible
11 Dec 6.9 13:59:06 10° N 14:06:10 - SW 14:01:53 38° NW visible
